Location: Quedlinburg
(51.7921°N, 11.1414°E)
Time: 20:50:29
(UTC+02:00)

CUBESAT XI-V - Pass Details

Date: 24 March 2026
Orbit: 643 x 664 km, 98.3° (Epoch: 14 April)

Event Time Altitude Azimuth Distance (km) Brightness Sun altitude
Exits shadow 04:12:37 26° 288° (WNW) 1,286 ? -18.1°
Drops below altitude 10° 04:15:31 10° 325° (NW) 2,060 ? -17.7°
Sets 04:18:00 0° 337° (NNW) 2,973 ? -17.4°
